PLT8992 SBFZ-LPPT

Flight info

Callsign PLT8992
Flight time N/A
Altitude 35000
Route TOGAB UZ18 ARTIG UN866 DEKON/N0486F360 UN866 AMDOL/N0481F370 UN866 TENPA N866 GOMER/N0474F380 N866 KONBA UN866 BEXAL DCT LUVUP
Aircraft B77W/H-SDE1E2E3FGHIJ2J3J4J5M1RWXY/LB1D1

Departure

Time 2026-05-01 13:17
Airport Pinto Martins International Airport (SBFZ)

Arrival

Time N/A
Airport Lisbon Humberto Delgado Airport (LPPT)
Time Latitude Longitude Altitude Speed Heading
2026-05-01 12:53 -3.77765 -38.54208 96 ft 0 kts 131°
2026-05-01 13:07 -3.77756 -38.54219 96 ft 3 kts 131°
2026-05-01 13:07 -3.77742 -38.54234 95 ft 3 kts 130°
2026-05-01 13:08 -3.77729 -38.54249 99 ft 3 kts 129°
2026-05-01 13:08 -3.77717 -38.54264 95 ft 3 kts 134°
2026-05-01 13:08 -3.77705 -38.54275 95 ft 3 kts 144°
2026-05-01 13:08 -3.77690 -38.54284 96 ft 3 kts 165°
2026-05-01 13:09 -3.77671 -38.54287 94 ft 3 kts 178°
2026-05-01 13:09 -3.77651 -38.54288 94 ft 3 kts 167°
2026-05-01 13:09 -3.77644 -38.54289 95 ft 3 kts 159°
2026-05-01 13:09 -3.77631 -38.54295 95 ft 3 kts 130°
2026-05-01 13:10 -3.77627 -38.54294 94 ft 3 kts 90°
2026-05-01 13:10 -3.77628 -38.54284 97 ft 2 kts 105°
2026-05-01 13:10 -3.77640 -38.54239 97 ft 2 kts 284°
2026-05-01 13:13 -3.77634 -38.54264 98 ft 7 kts 284°
2026-05-01 13:13 -3.77620 -38.54320 95 ft 10 kts 285°
2026-05-01 13:13 -3.77576 -38.54367 98 ft 10 kts 338°
2026-05-01 13:13 -3.77513 -38.54387 99 ft 10 kts 331°
2026-05-01 13:14 -3.77478 -38.54443 98 ft 10 kts 290°
2026-05-01 13:14 -3.77443 -38.54498 98 ft 10 kts 327°
2026-05-01 13:14 -3.77376 -38.54500 99 ft 10 kts 12°
2026-05-01 13:14 -3.77332 -38.54490 99 ft 5 kts 13°
2026-05-01 13:15 -3.77314 -38.54481 98 ft 3 kts 38°
2026-05-01 13:15 -3.77310 -38.54462 101 ft 3 kts 88°
2026-05-01 13:15 -3.77313 -38.54449 99 ft 0 kts 107°
2026-05-01 13:16 -3.77320 -38.54426 100 ft 0 kts 107°
2026-05-01 13:16 -3.77332 -38.54387 99 ft 28 kts 105°
2026-05-01 13:17 -3.78040 -38.51745 560 ft 184 kts 106°
2026-05-01 13:17 -3.78340 -38.50509 1292 ft 180 kts 104°
2026-05-01 13:18 -3.78834 -38.48019 2571 ft 186 kts 79°
2026-05-01 13:18 -3.78199 -38.46878 3010 ft 192 kts 52°
2026-05-01 13:18 -3.77335 -38.45820 3422 ft 204 kts 54°
2026-05-01 13:18 -3.76664 -38.44969 3573 ft 221 kts 54°
2026-05-01 13:19 -3.75684 -38.43704 3814 ft 244 kts 55°
2026-05-01 13:19 -3.74725 -38.42259 4394 ft 251 kts 58°
2026-05-01 13:19 -3.72909 -38.39220 5860 ft 259 kts 59°
2026-05-01 13:20 -3.71987 -38.37647 6546 ft 265 kts 59°
2026-05-01 13:20 -3.71049 -38.36040 7232 ft 267 kts 59°
2026-05-01 13:20 -3.69951 -38.34532 7852 ft 272 kts 49°
2026-05-01 13:21 -3.67360 -38.31724 9338 ft 276 kts 49°
2026-05-01 13:21 -3.66090 -38.30268 10022 ft 279 kts 51°
2026-05-01 13:21 -3.64824 -38.28744 10449 ft 293 kts 52°
2026-05-01 13:21 -3.63500 -38.27084 10600 ft 317 kts 52°
2026-05-01 13:22 -3.62117 -38.25299 10771 ft 340 kts 53°
2026-05-01 13:22 -3.60645 -38.23358 11022 ft 359 kts 53°
2026-05-01 13:22 -3.59128 -38.21328 11569 ft 368 kts 54°
2026-05-01 13:22 -3.57589 -38.19248 12268 ft 374 kts 54°
2026-05-01 13:23 -3.56038 -38.17141 13118 ft 377 kts 54°
2026-05-01 13:23 -3.54478 -38.15014 13892 ft 381 kts 54°
2026-05-01 13:23 -3.53435 -38.13590 14338 ft 384 kts 54°
2026-05-01 13:23 -3.51847 -38.11420 15006 ft 389 kts 54°
2026-05-01 13:24 -3.50237 -38.09221 15665 ft 394 kts 54°
2026-05-01 13:24 -3.48612 -38.06999 16336 ft 397 kts 54°
2026-05-01 13:24 -3.46970 -38.04757 16998 ft 402 kts 54°
2026-05-01 13:25 -3.43632 -38.00195 18253 ft 411 kts 55°
2026-05-01 13:25 -3.41936 -37.97880 18798 ft 415 kts 55°
2026-05-01 13:25 -3.40225 -37.95543 19360 ft 418 kts 55°
2026-05-01 13:25 -3.38499 -37.93186 19908 ft 421 kts 55°
2026-05-01 13:26 -3.36758 -37.90808 20466 ft 425 kts 55°
2026-05-01 13:26 -3.35005 -37.88415 21003 ft 428 kts 55°
2026-05-01 13:26 -3.33235 -37.85997 21547 ft 432 kts 55°
2026-05-01 13:26 -3.31448 -37.83557 22072 ft 436 kts 55°
2026-05-01 13:27 -3.29646 -37.81097 22573 ft 440 kts 55°
2026-05-01 13:27 -3.27832 -37.78620 23077 ft 443 kts 55°
2026-05-01 13:27 -3.24256 -37.73587 23955 ft 450 kts 57°
2026-05-01 13:28 -3.20815 -37.68304 24756 ft 456 kts 58°
2026-05-01 13:28 -3.19087 -37.65621 25149 ft 460 kts 58°
2026-05-01 13:29 -3.15580 -37.60218 25896 ft 466 kts 58°
2026-05-01 13:29 -3.12000 -37.54756 26625 ft 472 kts 57°
2026-05-01 13:30 -3.04677 -37.43632 27964 ft 484 kts 57°
2026-05-01 13:31 -3.00950 -37.37972 28589 ft 489 kts 57°
2026-05-01 13:31 -2.95296 -37.29382 29430 ft 496 kts 57°
2026-05-01 13:32 -2.91529 -37.23660 30158 ft 495 kts 57°
2026-05-01 13:33 -2.85869 -37.15066 31206 ft 492 kts 57°
2026-05-01 13:33 -2.82111 -37.09359 31887 ft 490 kts 57°
2026-05-01 13:34 -2.78360 -37.03665 32570 ft 489 kts 57°
2026-05-01 13:34 -2.74615 -36.97979 33230 ft 489 kts 58°
2026-05-01 13:35 -2.71006 -36.92503 33821 ft 490 kts 58°
2026-05-01 13:35 -2.69154 -36.89691 34068 ft 491 kts 58°
2026-05-01 13:35 -2.65392 -36.83983 34557 ft 492 kts 58°
2026-05-01 13:36 -2.63507 -36.81123 34798 ft 493 kts 58°
2026-05-01 13:36 -2.57800 -36.72463 34964 ft 496 kts 58°
2026-05-01 13:37 -2.54018 -36.66728 34964 ft 492 kts 58°
2026-05-01 13:37 -2.50255 -36.61021 34969 ft 491 kts 58°
2026-05-01 13:38 -2.44640 -36.52506 34972 ft 492 kts 58°
2026-05-01 13:39 -2.40492 -36.47052 34974 ft 495 kts 47°
2026-05-01 13:39 -2.35318 -36.42482 34978 ft 498 kts 38°
2026-05-01 13:40 -2.29730 -36.38358 34973 ft 501 kts 37°
2026-05-01 13:40 -2.24101 -36.34223 34973 ft 502 kts 37°
2026-05-01 13:41 -2.18480 -36.30051 34971 ft 503 kts 38°
2026-05-01 13:41 -2.12863 -36.25856 34968 ft 504 kts 38°
2026-05-01 13:42 -2.07250 -36.21660 34966 ft 504 kts 37°
2026-05-01 13:42 -2.01632 -36.17462 34970 ft 504 kts 37°
2026-05-01 13:43 -1.96053 -36.13296 34964 ft 504 kts 37°
2026-05-01 13:43 -1.90442 -36.09106 34966 ft 503 kts 37°
2026-05-01 13:44 -1.84830 -36.04916 34972 ft 503 kts 37°
2026-05-01 13:44 -1.79214 -36.00723 34966 ft 503 kts 37°
2026-05-01 13:45 -1.73604 -35.96536 34968 ft 504 kts 37°
2026-05-01 13:45 -1.67988 -35.92343 34964 ft 504 kts 37°
2026-05-01 13:46 -1.62368 -35.88149 34965 ft 504 kts 37°
2026-05-01 13:46 -1.56750 -35.83955 34965 ft 504 kts 38°
2026-05-01 13:47 -1.51136 -35.79766 34962 ft 503 kts 37°
2026-05-01 13:47 -1.45523 -35.75577 34969 ft 503 kts 38°
2026-05-01 13:48 -1.39950 -35.71418 34963 ft 503 kts 37°
2026-05-01 13:48 -1.34339 -35.67232 34967 ft 503 kts 37°
2026-05-01 13:49 -1.28731 -35.63048 34967 ft 503 kts 38°
2026-05-01 13:49 -1.23127 -35.58867 34966 ft 502 kts 38°
2026-05-01 13:50 -1.17526 -35.54689 34964 ft 501 kts 38°
2026-05-01 13:50 -1.11943 -35.50523 34964 ft 500 kts 38°
2026-05-01 13:51 -1.06374 -35.46369 34960 ft 498 kts 38°
2026-05-01 13:51 -1.00829 -35.42233 34961 ft 496 kts 38°
2026-05-01 13:52 -0.95301 -35.38110 34959 ft 495 kts 38°
2026-05-01 13:52 -0.89780 -35.33991 34963 ft 495 kts 38°
2026-05-01 13:53 -0.84253 -35.29869 34966 ft 496 kts 38°
2026-05-01 13:53 -0.75932 -35.23663 34964 ft 499 kts 38°
2026-05-01 13:54 -0.70381 -35.19523 34961 ft 501 kts 38°
2026-05-01 13:54 -0.64786 -35.15350 34962 ft 503 kts 38°
2026-05-01 13:55 -0.59175 -35.11167 34962 ft 504 kts 38°
2026-05-01 13:55 -0.53551 -35.06973 34961 ft 504 kts 37°
2026-05-01 13:56 -0.47927 -35.02779 34962 ft 505 kts 37°
2026-05-01 13:56 -0.42300 -34.98584 34961 ft 505 kts 37°
2026-05-01 13:57 -0.37619 -34.95093 34958 ft 505 kts 37°
2026-05-01 13:57 -0.31068 -34.90209 34959 ft 505 kts 37°
2026-05-01 13:58 -0.25432 -34.86006 34957 ft 505 kts 37°
2026-05-01 13:58 -0.19805 -34.81810 34958 ft 505 kts 37°
2026-05-01 13:59 -0.14170 -34.77609 34960 ft 505 kts 37°
2026-05-01 13:59 -0.08540 -34.73410 34959 ft 505 kts 37°
2026-05-01 14:00 -0.02906 -34.69210 34961 ft 505 kts 37°
2026-05-01 14:00 0.02684 -34.65042 34960 ft 505 kts 37°
2026-05-01 14:01 0.08316 -34.60842 34959 ft 505 kts 37°
2026-05-01 14:01 0.13942 -34.56647 34959 ft 505 kts 37°
2026-05-01 14:02 0.19573 -34.52449 34959 ft 505 kts 37°
2026-05-01 14:02 0.25201 -34.48252 34959 ft 505 kts 37°
2026-05-01 14:03 0.30833 -34.44056 34955 ft 505 kts 37°
2026-05-01 14:03 0.36426 -34.39892 34957 ft 505 kts 37°
2026-05-01 14:04 0.42054 -34.35696 34955 ft 505 kts 37°
2026-05-01 14:04 0.46775 -34.32174 34955 ft 505 kts 37°
2026-05-01 14:05 0.53324 -34.27289 34956 ft 505 kts 37°
2026-05-01 14:05 0.58961 -34.23084 34954 ft 506 kts 37°
2026-05-01 14:06 0.64609 -34.18870 34951 ft 506 kts 37°
2026-05-01 14:06 0.70256 -34.14657 34946 ft 506 kts 37°
2026-05-01 14:07 0.75862 -34.10473 34954 ft 506 kts 37°
2026-05-01 14:08 0.84359 -34.04189 34954 ft 506 kts 34°
2026-05-01 14:08 0.90451 -34.00661 34956 ft 506 kts 28°
2026-05-01 14:09 0.96659 -33.97328 34950 ft 507 kts 28°
2026-05-01 14:09 1.02866 -33.93967 34950 ft 507 kts 28°
2026-05-01 14:10 1.09053 -33.90577 34954 ft 507 kts 28°
2026-05-01 14:10 1.15242 -33.87174 34952 ft 507 kts 28°
2026-05-01 14:11 1.21432 -33.83772 34949 ft 508 kts 28°
2026-05-01 14:11 1.30716 -33.78672 34949 ft 508 kts 28°
2026-05-01 14:12 1.36913 -33.75269 34951 ft 508 kts 28°
2026-05-01 14:12 1.43063 -33.71891 34950 ft 508 kts 28°
2026-05-01 14:13 1.48257 -33.69038 34948 ft 508 kts 28°
2026-05-01 14:13 1.54422 -33.65651 34948 ft 509 kts 28°
2026-05-01 14:14 1.60638 -33.62236 34947 ft 509 kts 28°
2026-05-01 14:14 1.66843 -33.58825 34948 ft 509 kts 28°
2026-05-01 14:15 1.73059 -33.55409 34949 ft 509 kts 28°
2026-05-01 14:15 1.79281 -33.51991 34948 ft 510 kts 28°
2026-05-01 14:16 1.85458 -33.48597 34949 ft 510 kts 28°
2026-05-01 14:16 1.91673 -33.45180 34949 ft 510 kts 28°
2026-05-01 14:17 1.97889 -33.41762 34948 ft 509 kts 28°
2026-05-01 14:17 2.04097 -33.38348 34948 ft 509 kts 28°
2026-05-01 14:18 2.10299 -33.34936 34947 ft 509 kts 28°
2026-05-01 14:18 2.16505 -33.31523 34947 ft 508 kts 28°
2026-05-01 14:19 2.22697 -33.28116 34944 ft 508 kts 28°
2026-05-01 14:19 2.28886 -33.24712 34944 ft 507 kts 28°
2026-05-01 14:20 2.38171 -33.19603 34945 ft 507 kts 29°
2026-05-01 14:21 2.44304 -33.16228 34945 ft 506 kts 29°
2026-05-01 14:21 2.50475 -33.12832 34944 ft 506 kts 29°
2026-05-01 14:22 2.59733 -33.07736 34946 ft 506 kts 28°
2026-05-01 14:22 2.65897 -33.04342 34945 ft 505 kts 28°
2026-05-01 14:23 2.72032 -33.00964 34945 ft 505 kts 28°
2026-05-01 14:23 2.78189 -32.97574 34946 ft 505 kts 28°
2026-05-01 14:24 2.84345 -32.94184 34943 ft 505 kts 28°
2026-05-01 14:24 2.90500 -32.90794 34943 ft 505 kts 28°
2026-05-01 14:25 2.96660 -32.87401 34943 ft 504 kts 28°
2026-05-01 14:25 3.02808 -32.84013 34942 ft 505 kts 28°
2026-05-01 14:26 3.12042 -32.78926 34943 ft 505 kts 28°
2026-05-01 14:27 3.18197 -32.75534 34941 ft 505 kts 28°
2026-05-01 14:27 3.24360 -32.72136 34944 ft 506 kts 28°
2026-05-01 14:28 3.33614 -32.67033 34945 ft 506 kts 28°
2026-05-01 14:28 3.39742 -32.63654 34942 ft 505 kts 28°
2026-05-01 14:29 3.45901 -32.60258 34939 ft 504 kts 28°
2026-05-01 14:30 3.58195 -32.53491 34941 ft 503 kts 27°
2026-05-01 14:31 3.67381 -32.48430 34940 ft 502 kts 27°
2026-05-01 14:31 3.73502 -32.45058 34939 ft 502 kts 27°
2026-05-01 14:32 3.79627 -32.41682 34943 ft 503 kts 28°
2026-05-01 14:32 3.85723 -32.38322 34941 ft 504 kts 28°
2026-05-01 14:33 3.91868 -32.34934 34942 ft 504 kts 28°
2026-05-01 14:33 3.98017 -32.31543 34941 ft 505 kts 28°
2026-05-01 14:34 4.04173 -32.28149 34941 ft 505 kts 28°
2026-05-01 14:34 4.10337 -32.24749 34939 ft 506 kts 28°
2026-05-01 14:35 4.16503 -32.21347 34941 ft 506 kts 28°
2026-05-01 14:35 4.22671 -32.17943 34944 ft 506 kts 28°
2026-05-01 14:36 4.28837 -32.14541 34941 ft 506 kts 28°
2026-05-01 14:36 4.34999 -32.11139 34940 ft 505 kts 28°
2026-05-01 14:37 4.41121 -32.07758 34943 ft 505 kts 28°
2026-05-01 14:37 4.47285 -32.04354 34942 ft 505 kts 28°
2026-05-01 14:38 4.53442 -32.00953 34943 ft 505 kts 28°
2026-05-01 14:38 4.59594 -31.97555 34946 ft 505 kts 28°
2026-05-01 14:39 4.65757 -31.94149 34943 ft 505 kts 28°
2026-05-01 14:39 4.71864 -31.90774 34945 ft 505 kts 28°
2026-05-01 14:40 4.78027 -31.87368 34942 ft 506 kts 28°
2026-05-01 14:40 4.84195 -31.83958 34943 ft 506 kts 28°
2026-05-01 14:41 4.90373 -31.80540 34941 ft 507 kts 28°
2026-05-01 14:41 4.96554 -31.77121 34942 ft 507 kts 28°
2026-05-01 14:42 5.02734 -31.73702 34942 ft 507 kts 28°
2026-05-01 14:42 5.08914 -31.70282 34942 ft 507 kts 28°
2026-05-01 14:43 5.15100 -31.66856 34942 ft 507 kts 28°
2026-05-01 14:43 5.21285 -31.63432 34945 ft 507 kts 27°
2026-05-01 14:44 5.27448 -31.59991 34942 ft 507 kts 28°
2026-05-01 14:44 5.36675 -31.54795 34944 ft 506 kts 28°
2026-05-01 14:45 5.45884 -31.49612 34948 ft 506 kts 28°
2026-05-01 14:46 5.51982 -31.46182 34946 ft 505 kts 28°
2026-05-01 14:46 5.61188 -31.41004 34946 ft 505 kts 27°
2026-05-01 14:47 5.67313 -31.37557 34944 ft 505 kts 27°
2026-05-01 14:48 5.76501 -31.32385 34944 ft 505 kts 27°
2026-05-01 14:48 5.85695 -31.27207 34945 ft 505 kts 27°
2026-05-01 14:49 5.97946 -31.20305 34943 ft 505 kts 27°
2026-05-01 14:50 6.10165 -31.13417 34945 ft 505 kts 27°
2026-05-01 14:51 6.19362 -31.08231 34945 ft 505 kts 27°
2026-05-01 14:52 6.28561 -31.03040 34942 ft 505 kts 27°
2026-05-01 14:53 6.37756 -30.97851 34946 ft 505 kts 27°
2026-05-01 14:53 6.43885 -30.94390 34947 ft 505 kts 27°
2026-05-01 14:54 6.50011 -30.90931 34948 ft 505 kts 27°
2026-05-01 14:54 6.56096 -30.87493 34946 ft 505 kts 27°
2026-05-01 14:55 6.62214 -30.84036 34951 ft 505 kts 27°
2026-05-01 14:55 6.68337 -30.80575 34954 ft 504 kts 27°
2026-05-01 14:56 6.74457 -30.77115 34952 ft 504 kts 27°
2026-05-01 14:56 6.80576 -30.73654 34952 ft 504 kts 27°
2026-05-01 14:57 6.86694 -30.70193 34953 ft 504 kts 27°
2026-05-01 14:57 6.95881 -30.64993 34954 ft 504 kts 27°
2026-05-01 14:58 7.02000 -30.61529 34954 ft 505 kts 27°
2026-05-01 14:58 7.08089 -30.58081 34957 ft 505 kts 27°
2026-05-01 14:59 7.14211 -30.54613 34951 ft 505 kts 27°
2026-05-01 14:59 7.20338 -30.51141 34957 ft 505 kts 27°
2026-05-01 15:00 7.29129 -30.46157 34956 ft 505 kts 27°
2026-05-01 15:01 7.35226 -30.42699 34955 ft 505 kts 27°
2026-05-01 15:01 7.41364 -30.39218 35016 ft 508 kts 27°
2026-05-01 15:01 7.43445 -30.38037 35193 ft 508 kts 27°
2026-05-01 15:02 7.47516 -30.35726 35602 ft 506 kts 27°
2026-05-01 15:02 7.48557 -30.35135 35720 ft 506 kts 27°
2026-05-01 15:02 7.52613 -30.32832 36146 ft 505 kts 27°
2026-05-01 15:02 7.55671 -30.31095 36417 ft 504 kts 26°
2026-05-01 15:03 7.58730 -30.29358 36667 ft 505 kts 26°
2026-05-01 15:03 7.61799 -30.27616 36874 ft 506 kts 26°
2026-05-01 15:03 7.64874 -30.25870 36917 ft 508 kts 26°
2026-05-01 15:04 7.71022 -30.22376 36951 ft 506 kts 26°
2026-05-01 15:04 7.77129 -30.18904 36955 ft 502 kts 26°
2026-05-01 15:05 7.83208 -30.15447 36961 ft 500 kts 26°
2026-05-01 15:05 7.89224 -30.12025 36965 ft 500 kts 26°
2026-05-01 15:06 7.95283 -30.08579 36964 ft 500 kts 26°
2026-05-01 15:06 8.01357 -30.05122 36963 ft 501 kts 26°
2026-05-01 15:07 8.07446 -30.01656 36968 ft 503 kts 26°
2026-05-01 15:07 8.13519 -29.98196 36966 ft 504 kts 26°
2026-05-01 15:08 8.19640 -29.94708 36963 ft 505 kts 26°
2026-05-01 15:08 8.25758 -29.91221 36963 ft 505 kts 26°
2026-05-01 15:09 8.31887 -29.87726 36965 ft 506 kts 26°
2026-05-01 15:09 8.38015 -29.84229 36966 ft 505 kts 26°
2026-05-01 15:10 8.44102 -29.80755 36965 ft 505 kts 26°
2026-05-01 15:10 8.53283 -29.75517 36963 ft 504 kts 26°
2026-05-01 15:11 8.62443 -29.70291 36965 ft 504 kts 26°
2026-05-01 15:12 8.68556 -29.66801 36965 ft 504 kts 26°
2026-05-01 15:12 8.77668 -29.61595 36968 ft 504 kts 26°
2026-05-01 15:14 8.92920 -29.52875 36970 ft 504 kts 26°
2026-05-01 15:14 9.02082 -29.47632 36971 ft 504 kts 26°
2026-05-01 15:15 9.14301 -29.40635 36973 ft 505 kts 26°
2026-05-01 15:16 9.26497 -29.33646 36977 ft 505 kts 26°
2026-05-01 15:18 9.41790 -29.24874 36976 ft 505 kts 26°
2026-05-01 15:19 9.54029 -29.17847 36975 ft 505 kts 26°
2026-05-01 15:19 9.63199 -29.12578 36976 ft 505 kts 26°
2026-05-01 15:20 9.72336 -29.07324 36978 ft 505 kts 26°
2026-05-01 15:21 9.78447 -29.03808 36976 ft 505 kts 26°
2026-05-01 15:21 9.84560 -29.00290 36979 ft 505 kts 26°
2026-05-01 15:22 9.93723 -28.95013 36978 ft 505 kts 26°
2026-05-01 15:22 9.99831 -28.91491 36985 ft 505 kts 26°
2026-05-01 15:23 10.05930 -28.87973 36982 ft 504 kts 26°
2026-05-01 15:23 10.11997 -28.84472 36986 ft 504 kts 26°
2026-05-01 15:24 10.18095 -28.80952 36982 ft 504 kts 26°
2026-05-01 15:24 10.24207 -28.77422 36983 ft 505 kts 26°
2026-05-01 15:25 10.30306 -28.73897 36985 ft 505 kts 26°
2026-05-01 15:25 10.36416 -28.70365 36985 ft 505 kts 26°
2026-05-01 15:26 10.42525 -28.66833 36987 ft 505 kts 26°
2026-05-01 15:26 10.48622 -28.63304 36987 ft 505 kts 26°
2026-05-01 15:27 10.54730 -28.59769 36987 ft 505 kts 26°
2026-05-01 15:28 10.63845 -28.54489 36988 ft 505 kts 26°
2026-05-01 15:28 10.69945 -28.50954 36987 ft 505 kts 26°
2026-05-01 15:29 10.78819 -28.45808 36991 ft 505 kts 26°
2026-05-01 15:30 10.91014 -28.38730 36991 ft 504 kts 26°
2026-05-01 15:31 11.09258 -28.28130 36986 ft 503 kts 26°
2026-05-01 15:32 11.21411 -28.21060 36992 ft 503 kts 26°
2026-05-01 15:34 11.39626 -28.10450 36997 ft 502 kts 26°